| time (UTC) | temp F | wind direction | speed MPH | gust MPH | rain 1hr in | rain 24hr in | rain mn in | humidity % | barometer mb |
| 20260509150917 | 84 | 110 | 7.0 | 9.0 | 0.00 | 0.00 | 0.00 | 18 | 1012.5 |
| 20260509150417 | 84 | 110 | 5.0 | 9.0 | 0.00 | 0.00 | 0.00 | 19 | 1012.5 |
| 20260509145917 | 83 | 110 | 4.0 | 8.0 | 0.00 | 0.00 | 0.00 | 18 | 1012.4 |
| 20260509145417 | 83 | 110 | 9.0 | 9.0 | 0.00 | 0.00 | 0.00 | 18 | 1012.4 |
| 20260509144917 | 83 | 110 | 2.0 | 9.0 | 0.00 | 0.00 | 0.00 | 19 | 1012.4 |
| 20260509144418 | 83 | 110 | 2.0 | 8.0 | 0.00 | 0.00 | 0.00 | 19 | 1012.4 |
| 20260509143918 | 82 | 110 | 4.0 | 7.0 | 0.00 | 0.00 | 0.00 | 19 | 1012.4 |
| 20260509143417 | 82 | 110 | 2.0 | 5.0 | 0.00 | 0.00 | 0.00 | 19 | 1012.3 |
| 20260509142918 | 81 | 110 | 2.0 | 5.0 | 0.00 | 0.00 | 0.00 | 20 | 1012.3 |
| 20260509142417 | 81 | 110 | 2.0 | 8.0 | 0.00 | 0.00 | 0.00 | 19 | 1012.3 |
| 20260509141917 | 81 | 110 | 3.0 | 7.0 | 0.00 | 0.00 | 0.00 | 20 | 1012.2 |
| 20260509141417 | 81 | 110 | 3.0 | 8.0 | 0.00 | 0.00 | 0.00 | 19 | 1012.2 |
| 20260509140917 | 80 | 110 | 3.0 | 8.0 | 0.00 | 0.00 | 0.00 | 20 | 1012.2 |
| 20260509140419 | 79 | 110 | 2.0 | 5.0 | 0.00 | 0.00 | 0.00 | 21 | 1012.1 |
| 20260509135917 | 79 | 110 | 2.0 | 7.0 | 0.00 | 0.00 | 0.00 | 21 | 1012.1 |
| 20260509135417 | 78 | 110 | 2.0 | 5.0 | 0.00 | 0.00 | 0.00 | 21 | 1012.1 |
| 20260509134917 | 77 | 110 | 2.0 | 3.0 | 0.00 | 0.00 | 0.00 | 21 | 1012.1 |
| 20260509134417 | 77 | 110 | 1.0 | 3.0 | 0.00 | 0.00 | 0.00 | 21 | 1012.0 |
| 20260509133917 | 77 | 110 | 2.0 | 4.0 | 0.00 | 0.00 | 0.00 | 21 | 1012.0 |
| 20260509133419 | 76 | 110 | 3.0 | 4.0 | 0.00 | 0.00 | 0.00 | 21 | 1012.0 |
| 20260509132917 | 76 | 110 | 3.0 | 3.0 | 0.00 | 0.00 | 0.00 | 21 | 1011.9 |
| 20260509132417 | 76 | 110 | 1.0 | 5.0 | 0.00 | 0.00 | 0.00 | 20 | 1011.9 |
| 20260509131917 | 75 | 110 | 1.0 | 4.0 | 0.00 | 0.00 | 0.00 | 21 | 1011.8 |
| 20260509131417 | 75 | 110 | 2.0 | 4.0 | 0.00 | 0.00 | 0.00 | 21 | 1011.8 |
| 20260509130917 | 76 | 110 | 0.0 | 4.0 | 0.00 | 0.00 | 0.00 | 20 | 1011.7 |
| 20260509130417 | 76 | 110 | 1.0 | 9.0 | 0.00 | 0.00 | 0.00 | 20 | 1011.7 |
| 20260509125917 | 76 | 110 | 5.0 | 9.0 | 0.00 | 0.00 | 0.00 | 20 | 1011.6 |
| 20260509125417 | 76 | 110 | 7.0 | 8.0 | 0.00 | 0.00 | 0.00 | 20 | 1011.6 |
| 20260509124917 | 75 | 110 | 4.0 | 8.0 | 0.00 | 0.00 | 0.00 | 20 | 1011.5 |
| 20260509124419 | 75 | 110 | 4.0 | 5.0 | 0.00 | 0.00 | 0.00 | 20 | 1011.4 |
| 20260509123917 | 75 | 110 | 2.0 | 4.0 | 0.00 | 0.00 | 0.00 | 20 | 1011.4 |
| 20260509123417 | 75 | 110 | 3.0 | 7.0 | 0.00 | 0.00 | 0.00 | 20 | 1011.3 |
| 20260509122917 | 75 | 110 | 4.0 | 7.0 | 0.00 | 0.00 | 0.00 | 20 | 1011.2 |
| 20260509122417 | 75 | 110 | 3.0 | 7.0 | 0.00 | 0.00 | 0.00 | 20 | 1011.1 |
| 20260509121919 | 75 | 110 | 4.0 | 8.0 | 0.00 | 0.00 | 0.00 | 21 | 1011.1 |
| 20260509121417 | 75 | 110 | 4.0 | 8.0 | 0.00 | 0.00 | 0.00 | 21 | 1011.1 |
| 20260509120917 | 75 | 110 | 1.0 | 7.0 | 0.00 | 0.00 | 0.00 | 21 | 1011.0 |
| 20260509120417 | 75 | 110 | 2.0 | 5.0 | 0.00 | 0.00 | 0.00 | 21 | 1011.0 |
| 20260509115917 | 75 | 110 | 4.0 | 7.0 | 0.00 | 0.00 | 0.00 | 21 | 1011.0 |
| 20260509115417 | 75 | 110 | 1.0 | 4.0 | 0.00 | 0.00 | 0.00 | 21 | 1011.0 |
| 20260509114917 | 75 | 110 | 1.0 | 4.0 | 0.00 | 0.00 | 0.00 | 21 | 1010.9 |
| 20260509114417 | 76 | 110 | 2.0 | 5.0 | 0.00 | 0.00 | 0.00 | 20 | 1010.9 |
| 20260509113918 | 76 | 110 | 3.0 | 7.0 | 0.00 | 0.00 | 0.00 | 20 | 1010.8 |
| 20260509113418 | 75 | 110 | 4.0 | 8.0 | 0.00 | 0.00 | 0.00 | 20 | 1010.9 |
| 20260509112917 | 75 | 110 | 3.0 | 7.0 | 0.00 | 0.00 | 0.00 | 21 | 1010.9 |
| 20260509112418 | 75 | 110 | 5.0 | 8.0 | 0.00 | 0.00 | 0.00 | 21 | 1010.8 |
| 20260509111917 | 75 | 110 | 5.0 | 8.0 | 0.00 | 0.00 | 0.00 | 21 | 1010.8 |
| 20260509111417 | 74 | 110 | 5.0 | 5.0 | 0.00 | 0.00 | 0.00 | 22 | 1010.8 |
| 20260509110917 | 74 | 110 | 1.0 | 4.0 | 0.00 | 0.00 | 0.00 | 22 | 1010.8 |
| 20260509110417 | 73 | 110 | 0.0 | 5.0 | 0.00 | 0.00 | 0.00 | 22 | 1010.8 |
| 20260509105917 | 73 | 110 | 3.0 | 4.0 | 0.00 | 0.00 | 0.00 | 24 | 1010.7 |
| 20260509105417 | 71 | 110 | 1.0 | 3.0 | 0.00 | 0.00 | 0.00 | 24 | 1010.7 |
| 20260509104918 | 71 | 110 | 2.0 | 2.0 | 0.00 | 0.00 | 0.00 | 24 | 1010.7 |
| 20260509104417 | 71 | 110 | 2.0 | 5.0 | 0.00 | 0.00 | 0.00 | 24 | 1010.7 |
| 20260509103917 | 71 | 110 | 1.0 | 1.0 | 0.00 | 0.00 | 0.00 | 23 | 1010.7 |
| 20260509103417 | 71 | 110 | 1.0 | 1.0 | 0.00 | 0.00 | 0.00 | 23 | 1010.7 |
| 20260509102917 | 72 | 110 | 1.0 | 2.0 | 0.00 | 0.00 | 0.00 | 23 | 1010.6 |
| 20260509102417 | 73 | 110 | 0.0 | 0.0 | 0.00 | 0.00 | 0.00 | 23 | 1010.7 |
| 20260509101918 | 73 | 110 | 2.0 | 3.0 | 0.00 | 0.00 | 0.00 | 22 | 1010.8 |
| 20260509101417 | 73 | 110 | 2.0 | 3.0 | 0.00 | 0.00 | 0.00 | 22 | 1010.7 |
| 20260509100917 | 71 | 110 | 1.0 | 4.0 | 0.00 | 0.00 | 0.00 | 24 | 1010.8 |
| 20260509100417 | 71 | 110 | 2.0 | 4.0 | 0.00 | 0.00 | 0.00 | 26 | 1010.8 |
| 20260509095917 | 71 | 110 | 0.0 | 3.0 | 0.00 | 0.00 | 0.00 | 24 | 1010.7 |
| 20260509095417 | 72 | 110 | 0.0 | 1.0 | 0.00 | 0.00 | 0.00 | 23 | 1010.8 |
| 20260509094917 | 73 | 110 | 0.0 | 4.0 | 0.00 | 0.00 | 0.00 | 22 | 1010.8 |
| 20260509094417 | 73 | 110 | 2.0 | 3.0 | 0.00 | 0.00 | 0.00 | 22 | 1010.8 |
| 20260509093917 | 73 | 110 | 0.0 | 2.0 | 0.00 | 0.00 | 0.00 | 23 | 1010.8 |
| 20260509093417 | 73 | 110 | 0.0 | 2.0 | 0.00 | 0.00 | 0.00 | 22 | 1010.8 |
| 20260509092917 | 73 | 110 | 0.0 | 1.0 | 0.00 | 0.00 | 0.00 | 22 | 1010.8 |
| 20260509092417 | 73 | 110 | 0.0 | 2.0 | 0.00 | 0.00 | 0.00 | 22 | 1010.8 |
| 20260509091920 | 73 | 110 | 0.0 | 2.0 | 0.00 | 0.00 | 0.00 | 22 | 1010.9 |
| 20260509091417 | 74 | 110 | 0.0 | 2.0 | 0.00 | 0.00 | 0.00 | 22 | 1010.8 |
| 20260509090917 | 75 | 110 | 1.0 | 3.0 | 0.00 | 0.00 | 0.00 | 21 | 1010.9 |
| 20260509090420 | 74 | 110 | 1.0 | 2.0 | 0.00 | 0.00 | 0.00 | 22 | 1011.0 |
| 20260509085917 | 74 | 110 | 2.0 | 3.0 | 0.00 | 0.00 | 0.00 | 22 | 1010.9 |
| 20260509085417 | 74 | 110 | 1.0 | 2.0 | 0.00 | 0.00 | 0.00 | 22 | 1010.8 |
| 20260509084917 | 75 | 110 | 2.0 | 3.0 | 0.00 | 0.00 | 0.00 | 21 | 1010.9 |
| 20260509084417 | 75 | 110 | 2.0 | 3.0 | 0.00 | 0.00 | 0.00 | 21 | 1010.8 |
| 20260509083917 | 75 | 110 | 2.0 | 2.0 | 0.00 | 0.00 | 0.00 | 21 | 1010.8 |
| 20260509083417 | 74 | 110 | 2.0 | 3.0 | 0.00 | 0.00 | 0.00 | 22 | 1010.9 |
| 20260509082917 | 75 | 110 | 2.0 | 2.0 | 0.00 | 0.00 | 0.00 | 22 | 1010.8 |
| 20260509082417 | 75 | 110 | 0.0 | 5.0 | 0.00 | 0.00 | 0.00 | 22 | 1010.8 |
| 20260509081917 | 75 | 110 | 1.0 | 3.0 | 0.00 | 0.00 | 0.00 | 22 | 1010.8 |
| 20260509081417 | 75 | 110 | 2.0 | 3.0 | 0.00 | 0.00 | 0.00 | 22 | 1010.7 |
| 20260509080917 | 76 | 110 | 1.0 | 4.0 | 0.00 | 0.00 | 0.00 | 21 | 1010.7 |
| 20260509080419 | 75 | 110 | 3.0 | 4.0 | 0.00 | 0.00 | 0.00 | 22 | 1010.7 |
| 20260509075917 | 75 | 110 | 0.0 | 3.0 | 0.00 | 0.00 | 0.00 | 22 | 1010.7 |
| 20260509075417 | 74 | 110 | 0.0 | 2.0 | 0.00 | 0.00 | 0.00 | 22 | 1010.7 |
| 20260509074917 | 75 | 110 | 0.0 | 0.0 | 0.00 | 0.00 | 0.00 | 23 | 1010.8 |
| 20260509074417 | 75 | 110 | 0.0 | 0.0 | 0.00 | 0.00 | 0.00 | 22 | 1010.7 |
| 20260509073917 | 74 | 110 | 0.0 | 0.0 | 0.00 | 0.00 | 0.00 | 23 | 1010.8 |
| 20260509073417 | 74 | 110 | 0.0 | 2.0 | 0.00 | 0.00 | 0.00 | 23 | 1010.8 |
| 20260509072917 | 75 | 110 | 0.0 | 2.0 | 0.00 | 0.00 | 0.00 | 23 | 1010.8 |
| 20260509072418 | 75 | 110 | 2.0 | 3.0 | 0.00 | 0.00 | 0.00 | 23 | 1010.9 |
| 20260509071917 | 75 | 110 | 2.0 | 3.0 | 0.00 | 0.00 | 0.00 | 23 | 1010.8 |
| 20260509071417 | 75 | 110 | 0.0 | 2.0 | 0.00 | 0.00 | 0.00 | 23 | 1010.9 |
| 20260509070917 | 75 | 110 | 0.0 | 3.0 | 0.00 | 0.00 | 0.00 | 22 | 1010.9 |
| 20260509070417 | 76 | 110 | 1.0 | 3.0 | 0.00 | 0.00 | 0.00 | 22 | 1010.8 |
| 20260509065917 | 75 | 110 | 1.0 | 3.0 | 0.00 | 0.00 | 0.00 | 23 | 1010.8 |
| 20260509065417 | 75 | 110 | 0.0 | 3.0 | 0.00 | 0.00 | 0.00 | 22 | 1010.9 |
| 20260509064917 | 75 | 110 | 0.0 | 0.0 | 0.00 | 0.00 | 0.00 | 22 | 1010.8 |
| 20260509064417 | 76 | 110 | 0.0 | 0.0 | 0.00 | 0.00 | 0.00 | 22 | 1010.8 |
| 20260509063917 | 76 | 110 | 0.0 | 0.0 | 0.00 | 0.00 | 0.00 | 22 | 1010.8 |
| 20260509063417 | 76 | 110 | 0.0 | 0.0 | 0.00 | 0.00 | 0.00 | 21 | 1010.9 |
| 20260509062917 | 76 | 110 | 0.0 | 0.0 | 0.00 | 0.00 | 0.00 | 21 | 1010.8 |
| 20260509062417 | 77 | 110 | 0.0 | 0.0 | 0.00 | 0.00 | 0.00 | 22 | 1010.8 |
| 20260509061917 | 78 | 110 | 0.0 | 0.0 | 0.00 | 0.00 | 0.00 | 20 | 1010.8 |
| 20260509061418 | 78 | 110 | 0.0 | 0.0 | 0.00 | 0.00 | 0.00 | 20 | 1010.8 |
| 20260509060917 | 78 | 110 | 0.0 | 0.0 | 0.00 | 0.00 | 0.00 | 20 | 1010.8 |
| 20260509060417 | 79 | 110 | 0.0 | 2.0 | 0.00 | 0.00 | 0.00 | 20 | 1010.7 |
| 20260509055917 | 79 | 110 | 1.0 | 2.0 | 0.00 | 0.00 | 0.00 | 20 | 1010.7 |
| 20260509055417 | 78 | 110 | 1.0 | 2.0 | 0.00 | 0.00 | 0.00 | 20 | 1010.7 |
| 20260509054917 | 79 | 110 | 0.0 | 2.0 | 0.00 | 0.00 | 0.00 | 20 | 1010.6 |
| 20260509054417 | 79 | 110 | 2.0 | 2.0 | 0.00 | 0.00 | 0.00 | 20 | 1010.6 |
| 20260509053917 | 79 | 110 | 0.0 | 2.0 | 0.00 | 0.00 | 0.00 | 19 | 1010.6 |
| 20260509053417 | 80 | 110 | 0.0 | 1.0 | 0.00 | 0.00 | 0.00 | 19 | 1010.7 |
| 20260509052918 | 80 | 110 | 0.0 | 4.0 | 0.00 | 0.00 | 0.00 | 19 | 1010.6 |
| 20260509052417 | 79 | 110 | 0.0 | 1.0 | 0.00 | 0.00 | 0.00 | 20 | 1010.6 |
| 20260509051917 | 79 | 110 | 0.0 | 2.0 | 0.00 | 0.00 | 0.00 | 20 | 1010.6 |
| 20260509051417 | 79 | 110 | 2.0 | 2.0 | 0.00 | 0.00 | 0.00 | 20 | 1010.6 |
| 20260509050918 | 79 | 110 | 1.0 | 2.0 | 0.00 | 0.00 | 0.00 | 19 | 1010.6 |
| 20260509050417 | 78 | 110 | 1.0 | 1.0 | 0.00 | 0.00 | 0.00 | 19 | 1010.6 |
| 20260509045917 | 78 | 110 | 1.0 | 2.0 | 0.00 | 0.00 | 0.00 | 20 | 1010.5 |
| 20260509045418 | 78 | 110 | 1.0 | 2.0 | 0.00 | 0.00 | 0.00 | 19 | 1010.6 |
| 20260509044917 | 78 | 110 | 0.0 | 3.0 | 0.00 | 0.00 | 0.00 | 20 | 1010.5 |
| 20260509044417 | 79 | 110 | 0.0 | 2.0 | 0.00 | 0.00 | 0.00 | 19 | 1010.4 |
| 20260509043918 | 79 | 110 | 2.0 | 2.0 | 0.00 | 0.00 | 0.00 | 20 | 1010.3 |
| 20260509043417 | 79 | 110 | 0.0 | 0.0 | 0.00 | 0.00 | 0.00 | 19 | 1010.3 |
| 20260509042917 | 80 | 110 | 0.0 | 2.0 | 0.00 | 0.00 | 0.00 | 18 | 1010.2 |
| 20260509042417 | 80 | 110 | 1.0 | 2.0 | 0.00 | 0.00 | 0.00 | 18 | 1010.1 |
| 20260509041917 | 81 | 110 | 0.0 | 2.0 | 0.00 | 0.00 | 0.00 | 18 | 1010.1 |
| 20260509041417 | 81 | 110 | 1.0 | 2.0 | 0.00 | 0.00 | 0.00 | 18 | 1010.0 |
| 20260509040917 | 81 | 110 | 1.0 | 2.0 | 0.00 | 0.00 | 0.00 | 18 | 1009.9 |
| 20260509040418 | 81 | 110 | 1.0 | 3.0 | 0.00 | 0.00 | 0.00 | 18 | 1009.9 |
| 20260509035917 | 81 | 110 | 2.0 | 2.0 | 0.00 | 0.00 | 0.00 | 18 | 1009.8 |
| 20260509035417 | 82 | 110 | 1.0 | 2.0 | 0.00 | 0.00 | 0.00 | 18 | 1009.8 |
| 20260509034917 | 82 | 110 | 2.0 | 2.0 | 0.00 | 0.00 | 0.00 | 18 | 1009.7 |
| 20260509034417 | 82 | 110 | 1.0 | 2.0 | 0.00 | 0.00 | 0.00 | 18 | 1009.6 |
| 20260509033917 | 83 | 110 | 2.0 | 2.0 | 0.00 | 0.00 | 0.00 | 17 | 1009.6 |
| 20260509033417 | 83 | 110 | 1.0 | 2.0 | 0.00 | 0.00 | 0.00 | 17 | 1009.6 |
| 20260509032917 | 83 | 110 | 1.0 | 3.0 | 0.00 | 0.00 | 0.00 | 17 | 1009.6 |
| 20260509032417 | 83 | 110 | 2.0 | 3.0 | 0.00 | 0.00 | 0.00 | 17 | 1009.5 |
| 20260509031917 | 84 | 110 | 2.0 | 2.0 | 0.00 | 0.00 | 0.00 | 17 | 1009.4 |
| 20260509031417 | 84 | 110 | 2.0 | 2.0 | 0.00 | 0.00 | 0.00 | 17 | 1009.5 |
| 20260509030917 | 84 | 110 | 1.0 | 2.0 | 0.00 | 0.00 | 0.00 | 17 | 1009.4 |
| 20260509030417 | 85 | 110 | 1.0 | 2.0 | 0.00 | 0.00 | 0.00 | 16 | 1009.3 |
| 20260509025917 | 85 | 110 | 1.0 | 2.0 | 0.00 | 0.00 | 0.00 | 16 | 1009.3 |
| 20260509025417 | 86 | 110 | 1.0 | 2.0 | 0.00 | 0.00 | 0.00 | 15 | 1009.2 |
| 20260509024917 | 87 | 110 | 0.0 | 1.0 | 0.00 | 0.00 | 0.00 | 15 | 1009.2 |
| 20260509024417 | 87 | 110 | 0.0 | 1.0 | 0.00 | 0.00 | 0.00 | 14 | 1009.1 |
| 20260509023917 | 88 | 110 | 0.0 | 1.0 | 0.00 | 0.00 | 0.00 | 14 | 1009.1 |
| 20260509023417 | 89 | 110 | 0.0 | 1.0 | 0.00 | 0.00 | 0.00 | 14 | 1009.0 |
| 20260509022917 | 90 | 110 | 0.0 | 2.0 | 0.00 | 0.00 | 0.00 | 13 | 1009.0 |
| 20260509022417 | 91 | 110 | 1.0 | 3.0 | 0.00 | 0.00 | 0.00 | 12 | 1008.9 |
| 20260509021917 | 91 | 110 | 2.0 | 7.0 | 0.00 | 0.00 | 0.00 | 12 | 1008.9 |
| 20260509021417 | 92 | 110 | 2.0 | 5.0 | 0.00 | 0.00 | 0.00 | 12 | 1008.9 |
| 20260509020917 | 92 | 110 | 3.0 | 5.0 | 0.00 | 0.00 | 0.00 | 12 | 1008.8 |
| 20260509020417 | 93 | 110 | 5.0 | 9.0 | 0.00 | 0.00 | 0.00 | 12 | 1008.9 |
| 20260509015917 | 93 | 110 | 3.0 | 9.0 | 0.00 | 0.00 | 0.00 | 12 | 1008.8 |
| 20260509015417 | 93 | 110 | 7.0 | 7.0 | 0.00 | 0.00 | 0.00 | 12 | 1008.8 |
| 20260509014918 | 94 | 110 | 4.0 | 11.0 | 0.00 | 0.00 | 0.00 | 11 | 1008.8 |
| 20260509014419 | 94 | 110 | 4.0 | 8.0 | 0.00 | 0.00 | 0.00 | 12 | 1008.8 |
| 20260509013917 | 94 | 110 | 7.0 | 9.0 | 0.00 | 0.00 | 0.00 | 11 | 1008.8 |
| 20260509013417 | 94 | 110 | 3.0 | 10.0 | 0.00 | 0.00 | 0.00 | 11 | 1008.8 |
| 20260509012917 | 95 | 110 | 4.0 | 12.0 | 0.00 | 0.00 | 0.00 | 11 | 1008.8 |
| 20260509012417 | 95 | 110 | 5.0 | 11.0 | 0.00 | 0.00 | 0.00 | 11 | 1008.8 |
| 20260509011917 | 95 | 110 | 8.0 | 13.0 | 0.00 | 0.00 | 0.00 | 11 | 1008.8 |
| 20260509011417 | 95 | 110 | 8.0 | 11.0 | 0.00 | 0.00 | 0.00 | 11 | 1008.9 |
| 20260509010917 | 95 | 110 | 3.0 | 13.0 | 0.00 | 0.00 | 0.00 | 11 | 1008.8 |
| 20260509010417 | 95 | 110 | 7.0 | 12.0 | 0.00 | 0.00 | 0.00 | 11 | 1008.9 |
| 20260509005917 | 96 | 110 | 11.0 | 16.0 | 0.00 | 0.00 | 0.00 | 11 | 1008.9 |
| 20260509005418 | 96 | 110 | 12.0 | 13.0 | 0.00 | 0.00 | 0.00 | 10 | 1008.9 |
| 20260509004919 | 96 | 110 | 9.0 | 15.0 | 0.00 | 0.00 | 0.00 | 11 | 1008.9 |
| 20260509004417 | 96 | 110 | 11.0 | 17.0 | 0.00 | 0.00 | 0.00 | 11 | 1008.9 |
| 20260509003917 | 96 | 110 | 7.0 | 13.0 | 0.00 | 0.00 | 0.00 | 10 | 1009.0 |
| 20260509003417 | 96 | 110 | 5.0 | 12.0 | 0.00 | 0.00 | 0.00 | 10 | 1009.0 |
| 20260509002917 | 96 | 110 | 9.0 | 14.0 | 0.00 | 0.00 | 0.00 | 9 | 1009.0 |
| 20260509002417 | 96 | 110 | 9.0 | 13.0 | 0.00 | 0.00 | 0.00 | 10 | 1009.1 |
| 20260509001917 | 97 | 110 | 4.0 | 13.0 | 0.00 | 0.00 | 0.00 | 9 | 1009.1 |
| 20260509001417 | 97 | 110 | 5.0 | 13.0 | 0.00 | 0.00 | 0.00 | 9 | 1009.0 |
| 20260509000917 | 97 | 110 | 5.0 | 9.0 | 0.00 | 0.00 | 0.00 | 10 | 1009.1 |
| 20260509000418 | 96 | 110 | 5.0 | 14.0 | 0.00 | 0.00 | 0.00 | 10 | 1009.2 |
| 20260508235918 | 97 | 110 | 7.0 | 17.0 | 0.00 | 0.00 | 0.00 | 9 | 1009.2 |
| 20260508235417 | 97 | 110 | 9.0 | 16.0 | 0.00 | 0.00 | 0.00 | 8 | 1009.2 |
| 20260508234917 | 97 | 110 | 5.0 | 15.0 | 0.00 | 0.00 | 0.00 | 10 | 1009.2 |
| 20260508234417 | 97 | 110 | 8.0 | 15.0 | 0.00 | 0.00 | 0.00 | 10 | 1009.3 |
| 20260508233918 | 97 | 110 | 9.0 | 14.0 | 0.00 | 0.00 | 0.00 | 10 | 1009.3 |
| 20260508233417 | 97 | 110 | 9.0 | 13.0 | 0.00 | 0.00 | 0.00 | 10 | 1009.4 |
| 20260508232917 | 97 | 110 | 9.0 | 18.0 | 0.00 | 0.00 | 0.00 | 10 | 1009.4 |
| 20260508232417 | 97 | 110 | 8.0 | 15.0 | 0.00 | 0.00 | 0.00 | 10 | 1009.4 |
| 20260508231917 | 97 | 110 | 4.0 | 13.0 | 0.00 | 0.00 | 0.00 | 9 | 1009.4 |
| 20260508231417 | 97 | 110 | 10.0 | 14.0 | 0.00 | 0.00 | 0.00 | 10 | 1009.4 |
| 20260508230917 | 97 | 110 | 7.0 | 12.0 | 0.00 | 0.00 | 0.00 | 10 | 1009.5 |
| 20260508230417 | 97 | 110 | 8.0 | 12.0 | 0.00 | 0.00 | 0.00 | 10 | 1009.6 |
| 20260508225917 | 97 | 110 | 7.0 | 16.0 | 0.00 | 0.00 | 0.00 | 10 | 1009.5 |
| 20260508225417 | 98 | 110 | 14.0 | 15.0 | 0.00 | 0.00 | 0.00 | 10 | 1009.6 |
| 20260508224917 | 97 | 110 | 8.0 | 14.0 | 0.00 | 0.00 | 0.00 | 10 | 1009.7 |
| 20260508224417 | 97 | 110 | 10.0 | 14.0 | 0.00 | 0.00 | 0.00 | 10 | 1009.7 |
| 20260508223917 | 97 | 110 | 7.0 | 16.0 | 0.00 | 0.00 | 0.00 | 10 | 1009.8 |
| 20260508223417 | 97 | 110 | 4.0 | 11.0 | 0.00 | 0.00 | 0.00 | 11 | 1009.8 |
| 20260508222917 | 97 | 110 | 5.0 | 11.0 | 0.00 | 0.00 | 0.00 | 10 | 1010.0 |
| 20260508222417 | 96 | 110 | 7.0 | 12.0 | 0.00 | 0.00 | 0.00 | 11 | 1010.0 |
| 20260508221917 | 97 | 110 | 9.0 | 15.0 | 0.00 | 0.00 | 0.00 | 10 | 1010.1 |
| 20260508221417 | 96 | 110 | 3.0 | 12.0 | 0.00 | 0.00 | 0.00 | 11 | 1010.2 |
| 20260508220917 | 95 | 110 | 1.0 | 14.0 | 0.00 | 0.00 | 0.00 | 11 | 1010.2 |
| 20260508220417 | 96 | 110 | 5.0 | 16.0 | 0.00 | 0.00 | 0.00 | 10 | 1010.3 |
| 20260508215917 | 95 | 110 | 10.0 | 14.0 | 0.00 | 0.00 | 0.00 | 11 | 1010.3 |
| 20260508215417 | 96 | 110 | 7.0 | 18.0 | 0.00 | 0.00 | 0.00 | 11 | 1010.5 |
| 20260508214917 | 96 | 110 | 5.0 | 13.0 | 0.00 | 0.00 | 0.00 | 10 | 1010.5 |
| 20260508214417 | 97 | 110 | 3.0 | 15.0 | 0.00 | 0.00 | 0.00 | 10 | 1010.6 |
| 20260508213917 | 96 | 110 | 9.0 | 13.0 | 0.00 | 0.00 | 0.00 | 10 | 1010.7 |
| 20260508213417 | 96 | 110 | 8.0 | 12.0 | 0.00 | 0.00 | 0.00 | 11 | 1010.7 |
| 20260508212917 | 95 | 110 | 3.0 | 12.0 | 0.00 | 0.00 | 0.00 | 10 | 1010.8 |
| 20260508212417 | 96 | 110 | 5.0 | 13.0 | 0.00 | 0.00 | 0.00 | 10 | 1010.9 |
| 20260508211917 | 95 | 110 | 2.0 | 14.0 | 0.00 | 0.00 | 0.00 | 10 | 1011.0 |
| 20260508211417 | 96 | 110 | 7.0 | 13.0 | 0.00 | 0.00 | 0.00 | 10 | 1011.0 |
| 20260508210918 | 95 | 110 | 5.0 | 9.0 | 0.00 | 0.00 | 0.00 | 10 | 1011.1 |
| 20260508210417 | 93 | 110 | 4.0 | 10.0 | 0.00 | 0.00 | 0.00 | 12 | 1011.2 |
| 20260508205918 | 94 | 110 | 4.0 | 10.0 | 0.00 | 0.00 | 0.00 | 11 | 1011.3 |
| 20260508205417 | 94 | 110 | 7.0 | 12.0 | 0.00 | 0.00 | 0.00 | 11 | 1011.3 |
| 20260508204917 | 94 | 110 | 12.0 | 11.0 | 0.00 | 0.00 | 0.00 | 12 | 1011.4 |
| 20260508204417 | 94 | 110 | 7.0 | 8.0 | 0.00 | 0.00 | 0.00 | 12 | 1011.4 |
| 20260508203917 | 93 | 110 | 0.0 | 14.0 | 0.00 | 0.00 | 0.00 | 12 | 1011.6 |
| 20260508203417 | 93 | 110 | 8.0 | 21.0 | 0.00 | 0.00 | 0.00 | 12 | 1011.6 |
| 20260508202917 | 93 | 110 | 12.0 | 12.0 | 0.00 | 0.00 | 0.00 | 12 | 1011.7 |
| 20260508202417 | 93 | 110 | 3.0 | 8.0 | 0.00 | 0.00 | 0.00 | 12 | 1011.7 |
| 20260508201917 | 94 | 110 | 4.0 | 10.0 | 0.00 | 0.00 | 0.00 | 11 | 1011.8 |
| 20260508201418 | 93 | 110 | 1.0 | 9.0 | 0.00 | 0.00 | 0.00 | 12 | 1011.9 |
| 20260508200917 | 93 | 110 | 2.0 | 8.0 | 0.00 | 0.00 | 0.00 | 12 | 1011.9 |
| 20260508200417 | 93 | 110 | 2.0 | 9.0 | 0.00 | 0.00 | 0.00 | 12 | 1012.0 |
| 20260508195917 | 92 | 110 | 11.0 | 11.0 | 0.00 | 0.00 | 0.00 | 12 | 1012.1 |
| 20260508195417 | 93 | 110 | 5.0 | 10.0 | 0.00 | 0.00 | 0.00 | 12 | 1012.2 |
| 20260508194917 | 92 | 110 | 3.0 | 9.0 | 0.00 | 0.00 | 0.00 | 12 | 1012.2 |
| 20260508194417 | 92 | 110 | 8.0 | 9.0 | 0.00 | 0.00 | 0.00 | 12 | 1012.3 |
| 20260508193917 | 91 | 110 | 1.0 | 3.0 | 0.00 | 0.00 | 0.00 | 13 | 1012.3 |
| 20260508193422 | 91 | 110 | 0.0 | 7.0 | 0.00 | 0.00 | 0.00 | 13 | 1012.5 |
| 20260508192918 | 91 | 110 | 0.0 | 9.0 | 0.00 | 0.00 | 0.00 | 12 | 1012.6 |
| 20260508192417 | 91 | 110 | 9.0 | 10.0 | 0.00 | 0.00 | 0.00 | 13 | 1012.6 |
| 20260508191918 | 90 | 110 | 8.0 | 8.0 | 0.00 | 0.00 | 0.00 | 13 | 1012.6 |
| 20260508191417 | 90 | 110 | 5.0 | 9.0 | 0.00 | 0.00 | 0.00 | 13 | 1012.7 |
| 20260508190917 | 90 | 110 | 3.0 | 13.0 | 0.00 | 0.00 | 0.00 | 13 | 1012.8 |
| 20260508190418 | 89 | 110 | 5.0 | 7.0 | 0.00 | 0.00 | 0.00 | 14 | 1012.7 |
| 20260508185918 | 89 | 110 | 2.0 | 8.0 | 0.00 | 0.00 | 0.00 | 13 | 1012.8 |
| 20260508185417 | 90 | 110 | 7.0 | 12.0 | 0.00 | 0.00 | 0.00 | 14 | 1012.8 |
| 20260508184917 | 89 | 110 | 5.0 | 8.0 | 0.00 | 0.00 | 0.00 | 14 | 1012.9 |
| 20260508184418 | 89 | 110 | 4.0 | 11.0 | 0.00 | 0.00 | 0.00 | 14 | 1013.0 |
| 20260508183917 | 90 | 110 | 5.0 | 10.0 | 0.00 | 0.00 | 0.00 | 14 | 1013.0 |
| 20260508183417 | 89 | 110 | 5.0 | 7.0 | 0.00 | 0.00 | 0.00 | 14 | 1013.1 |
| 20260508182918 | 89 | 110 | 4.0 | 8.0 | 0.00 | 0.00 | 0.00 | 15 | 1013.1 |
| 20260508182417 | 88 | 110 | 3.0 | 4.0 | 0.00 | 0.00 | 0.00 | 15 | 1013.1 |
| 20260508181917 | 87 | 110 | 4.0 | 7.0 | 0.00 | 0.00 | 0.00 | 15 | 1013.2 |
| 20260508181417 | 87 | 110 | 0.0 | 10.0 | 0.00 | 0.00 | 0.00 | 15 | 1013.3 |
| 20260508180917 | 88 | 110 | 7.0 | 11.0 | 0.00 | 0.00 | 0.00 | 15 | 1013.3 |
| 20260508180417 | 87 | 110 | 3.0 | 9.0 | 0.00 | 0.00 | 0.00 | 15 | 1013.4 |
| 20260508175917 | 88 | 110 | 5.0 | 9.0 | 0.00 | 0.00 | 0.00 | 15 | 1013.4 |
| 20260508175417 | 88 | 110 | 5.0 | 10.0 | 0.00 | 0.00 | 0.00 | 15 | 1013.5 |
| 20260508174917 | 88 | 110 | 3.0 | 10.0 | 0.00 | 0.00 | 0.00 | 16 | 1013.5 |
| 20260508174417 | 87 | 110 | 2.0 | 8.0 | 0.00 | 0.00 | 0.00 | 16 | 1013.5 |
| 20260508173918 | 86 | 110 | 8.0 | 12.0 | 0.00 | 0.00 | 0.00 | 16 | 1013.6 |
| 20260508173418 | 87 | 110 | 5.0 | 12.0 | 0.00 | 0.00 | 0.00 | 16 | 1013.6 |
| 20260508172918 | 87 | 110 | 7.0 | 9.0 | 0.00 | 0.00 | 0.00 | 16 | 1013.6 |
| 20260508172417 | 86 | 110 | 3.0 | 13.0 | 0.00 | 0.00 | 0.00 | 17 | 1013.6 |
| 20260508171917 | 86 | 110 | 5.0 | 11.0 | 0.00 | 0.00 | 0.00 | 16 | 1013.7 |
| 20260508171417 | 86 | 110 | 5.0 | 13.0 | 0.00 | 0.00 | 0.00 | 17 | 1013.7 |
| 20260508170917 | 85 | 110 | 7.0 | 11.0 | 0.00 | 0.00 | 0.00 | 17 | 1013.8 |
| 20260508170417 | 85 | 110 | 4.0 | 12.0 | 0.00 | 0.00 | 0.00 | 17 | 1013.7 |
| 20260508165917 | 85 | 110 | 5.0 | 11.0 | 0.00 | 0.00 | 0.00 | 17 | 1013.7 |
| 20260508165417 | 85 | 110 | 5.0 | 8.0 | 0.00 | 0.00 | 0.00 | 17 | 1013.7 |
| 20260508164917 | 85 | 110 | 7.0 | 10.0 | 0.00 | 0.00 | 0.00 | 18 | 1013.7 |
| 20260508164417 | 85 | 110 | 4.0 | 10.0 | 0.00 | 0.00 | 0.00 | 18 | 1013.8 |
| 20260508163918 | 84 | 110 | 3.0 | 9.0 | 0.00 | 0.00 | 0.00 | 18 | 1013.7 |
| 20260508163417 | 84 | 110 | 8.0 | 9.0 | 0.00 | 0.00 | 0.00 | 18 | 1013.7 |
| 20260508162917 | 84 | 110 | 4.0 | 10.0 | 0.00 | 0.00 | 0.00 | 18 | 1013.7 |
| 20260508162418 | 84 | 110 | 10.0 | 10.0 | 0.00 | 0.00 | 0.00 | 18 | 1013.8 |
| 20260508161917 | 83 | 110 | 7.0 | 10.0 | 0.00 | 0.00 | 0.00 | 19 | 1013.7 |
| 20260508161417 | 82 | 110 | 4.0 | 10.0 | 0.00 | 0.00 | 0.00 | 19 | 1013.7 |
| 20260508160917 | 82 | 110 | 4.0 | 8.0 | 0.00 | 0.00 | 0.00 | 19 | 1013.7 |
| 20260508160417 | 82 | 110 | 4.0 | 10.0 | 0.00 | 0.00 | 0.00 | 20 | 1013.8 |
| 20260508155917 | 82 | 110 | 2.0 | 9.0 | 0.00 | 0.00 | 0.00 | 20 | 1013.8 |
| 20260508155417 | 81 | 110 | 3.0 | 10.0 | 0.00 | 0.00 | 0.00 | 20 | 1013.8 |
| 20260508154917 | 81 | 110 | 4.0 | 11.0 | 0.00 | 0.00 | 0.00 | 20 | 1013.9 |
| 20260508154417 | 81 | 110 | 9.0 | 9.0 | 0.00 | 0.00 | 0.00 | 21 | 1014.0 |
| 20260508153917 | 81 | 110 | 5.0 | 12.0 | 0.00 | 0.00 | 0.00 | 21 | 1014.0 |
| 20260508153417 | 80 | 110 | 5.0 | 9.0 | 0.00 | 0.00 | 0.00 | 21 | 1014.1 |
| 20260508152918 | 80 | 110 | 4.0 | 7.0 | 0.00 | 0.00 | 0.00 | 21 | 1014.0 |
| 20260508152417 | 79 | 110 | 2.0 | 10.0 | 0.00 | 0.00 | 0.00 | 22 | 1014.0 |
| 20260508151917 | 79 | 110 | 3.0 | 10.0 | 0.00 | 0.00 | 0.00 | 22 | 1014.0 |
| 20260508151417 | 79 | 110 | 5.0 | 11.0 | 0.00 | 0.00 | 0.00 | 22 | 1014.0 |